CW9414 Weather Reports


Display with metric or nautical units.
time (UTC)temp
F
wind
direction
speed
MPH
gust
MPH
rain 1hr
in
rain 24hr
in
rain mn
in
humidity
%
barometer
mb
20260906134438 81 161 0.0 0.0 0.00 0.00 0.00 89 1009.8
20260906133437 81 161 0.0 1.0 0.00 0.00 0.00 89 1009.8
20260906132441 80 161 0.0 1.0 0.00 0.00 0.00 89 1009.7
20260906131437 80 161 0.0 1.0 0.00 0.00 0.00 88 1009.7
20260906130437 79 161 0.0 0.0 0.00 0.00 0.00 87 1009.7
20260906125440 79 161 0.0 0.0 0.00 0.00 0.00 87 1009.5
20260906124440 79 161 0.0 0.0 0.00 0.00 0.00 86 1009.3
20260906123437 79 161 0.0 0.0 0.00 0.00 0.00 86 1009.3
20260906122437 79 161 0.0 0.0 0.00 0.00 0.00 86 1009.0
20260906121437 80 161 0.0 0.0 0.00 0.00 0.00 87 1008.7
20260906120437 80 161 0.0 0.0 0.00 0.00 0.00 86 1008.7
20260906115441 80 161 0.0 0.0 0.00 0.00 0.00 86 1008.6
20260906114437 80 161 0.0 0.0 0.00 0.00 0.00 86 1008.4
20260906113437 80 161 0.0 0.0 0.00 0.00 0.00 85 1008.4
20260906112437 80 161 0.0 0.0 0.00 0.00 0.00 85 1008.3
20260906111437 80 161 0.0 0.0 0.00 0.00 0.00 85 1008.4
20260906110440 80 161 0.0 0.0 0.00 0.00 0.00 84 1008.4
20260906105437 80 161 0.0 0.0 0.00 0.00 0.00 84 1008.4
20260906104438 80 161 0.0 0.0 0.00 0.00 0.00 84 1008.3
20260906103437 80 161 0.0 0.0 0.00 0.00 0.00 84 1008.3
20260906102438 80 161 0.0 0.0 0.00 0.00 0.00 84 1008.1
20260906101437 80 161 0.0 0.0 0.00 0.00 0.00 84 1008.1
20260906100440 80 161 0.0 0.0 0.00 0.00 0.00 84 1008.1
20260906095438 80 161 0.0 0.0 0.00 0.00 0.00 84 1007.9
20260906094440 81 161 0.0 0.0 0.00 0.00 0.00 84 1007.7
20260906093437 81 161 0.0 0.0 0.00 0.00 0.00 84 1007.7
20260906092437 81 161 0.0 0.0 0.00 0.00 0.00 83 1007.7
20260906091437 81 161 0.0 0.0 0.00 0.00 0.00 83 1007.9
20260906090437 81 161 0.0 0.0 0.00 0.00 0.00 83 1007.9
20260906085436 81 161 0.0 0.0 0.00 0.00 0.00 84 1007.6
20260906084437 81 161 0.0 0.0 0.00 0.00 0.00 83 1007.7
20260906083437 81 161 0.0 0.0 0.00 0.00 0.00 82 1007.7
20260906082437 81 161 0.0 0.0 0.00 0.00 0.00 82 1007.7
20260906081437 81 161 0.0 0.0 0.00 0.00 0.00 82 1007.8
20260906080436 81 161 0.0 0.0 0.00 0.00 0.00 82 1007.8
20260906075437 81 161 0.0 0.0 0.00 0.00 0.00 82 1007.9
20260906074437 82 161 0.0 0.0 0.00 0.00 0.00 82 1008.1
20260906073436 82 161 0.0 0.0 0.00 0.00 0.00 82 1008.1
20260906072437 82 161 0.0 0.0 0.00 0.00 0.00 82 1008.1
20260906071437 82 161 0.0 0.0 0.00 0.00 0.00 82 1008.4
20260906070436 82 161 0.0 2.0 0.00 0.00 0.00 82 1008.4
20260906065437 82 161 0.0 0.0 0.00 0.00 0.00 82 1008.6
20260906064436 82 161 0.0 0.0 0.00 0.00 0.00 82 1008.6
20260906063437 82 161 0.0 0.0 0.00 0.00 0.00 82 1008.6
20260906062436 82 161 0.0 1.0 0.00 0.00 0.00 81 1008.4
20260906061436 82 161 0.0 0.0 0.00 0.00 0.00 81 1008.5
20260906060436 82 161 0.0 0.0 0.00 0.00 0.00 81 1008.5
20260906055440 82 161 0.0 0.0 0.00 0.00 0.00 81 1008.3
20260906054436 82 161 0.0 2.0 0.00 0.00 0.00 80 1008.4
20260906053437 82 161 0.0 0.0 0.00 0.00 0.00 80 1008.4
20260906052437 82 161 0.0 3.0 0.00 0.00 0.00 80 1008.6
20260906051436 82 161 0.0 0.0 0.00 0.00 0.00 79 1008.6
20260906050436 83 161 0.0 0.0 0.00 0.00 0.06 79 1008.6
20260906045436 83 161 0.0 1.0 0.00 0.00 0.06 79 1008.7
20260906044436 83 161 0.0 3.0 0.00 0.00 0.06 79 1008.6
20260906043440 83 161 0.0 1.0 0.00 0.00 0.06 79 1008.6
20260906042437 83 161 0.0 3.0 0.00 0.00 0.06 78 1008.7
20260906041439 83 163 0.0 1.0 0.00 0.00 0.06 78 1008.7
20260906040436 83 163 0.0 1.0 0.00 0.00 0.06 78 1008.7
20260906035439 83 163 0.0 2.0 0.00 0.00 0.06 77 1008.7
20260906034437 83 163 0.0 1.0 0.00 0.00 0.06 77 1008.7
20260906033437 83 163 0.0 1.0 0.00 0.00 0.06 77 1008.7
20260906032439 83 163 0.0 3.0 0.00 0.00 0.06 77 1008.7
20260906031437 83 163 2.0 2.0 0.00 0.00 0.06 77 1008.6
20260906030436 83 163 0.0 0.0 0.00 0.00 0.06 76 1008.6
20260906025436 83 163 0.0 2.0 0.00 0.00 0.06 76 1008.4
20260906024440 83 163 2.0 3.0 0.00 0.00 0.06 77 1008.1
20260906023440 83 163 0.0 2.0 0.00 0.00 0.06 77 1008.1
20260906022437 83 163 1.0 4.0 0.00 0.00 0.06 78 1007.8
20260906021437 83 163 0.0 0.0 0.00 0.00 0.06 78 1007.6
20260906020439 84 163 0.0 0.0 0.00 0.00 0.06 78 1007.6
20260906015436 84 163 0.0 0.0 0.00 0.00 0.06 78 1007.5
20260906014436 84 163 0.0 0.0 0.00 0.00 0.06 78 1007.5
20260906013436 84 163 0.0 0.0 0.00 0.00 0.06 78 1007.5
20260906012436 84 163 0.0 0.0 0.00 0.00 0.06 78 1007.2
20260906011436 84 163 0.0 0.0 0.00 0.00 0.06 77 1007.2
20260906010437 84 163 0.0 0.0 0.00 0.00 0.06 77 1007.2
20260906005436 85 163 0.0 0.0 0.00 0.00 0.06 77 1007.2
20260906004436 85 163 0.0 0.0 0.00 0.00 0.06 76 1007.3
20260906003436 85 163 0.0 0.0 0.00 0.00 0.06 77 1007.3
20260906002436 85 163 0.0 0.0 0.00 0.00 0.06 76 1007.6
20260906001436 86 163 0.0 0.0 0.00 0.00 0.06 75 1007.6
20260906000436 86 163 0.0 0.0 0.00 0.00 0.06 75 1007.6
20260905235439 86 163 0.0 0.0 0.00 0.00 0.06 75 1007.6
20260905234436 86 163 0.0 0.0 0.00 0.00 0.06 74 1007.7
20260905233436 86 163 0.0 0.0 0.00 0.00 0.06 74 1007.7
20260905232437 86 163 0.0 0.0 0.00 0.00 0.06 75 1007.6
20260905231436 85 163 0.0 0.0 0.00 0.00 0.06 77 1007.6
20260905230436 85 163 0.0 0.0 0.00 0.00 0.06 77 1007.6
20260905225436 85 163 0.0 0.0 0.00 0.00 0.06 77 1007.3
20260905224437 85 163 0.0 0.0 0.00 0.00 0.06 78 1007.2
20260905223436 84 163 0.0 0.0 0.00 0.00 0.06 78 1007.2
20260905222436 84 163 0.0 0.0 0.00 0.00 0.06 78 1007.2
20260905221436 84 163 0.0 0.0 0.00 0.00 0.06 77 1007.5
20260905220436 84 163 0.0 0.0 0.00 0.00 0.06 77 1007.5
20260905215436 84 163 0.0 0.0 0.00 0.00 0.06 75 1007.5
20260905213404 85 163 0.0 0.0 0.00 0.00 0.06 70 1007.6
20260905212405 87 163 0.0 1.0 0.00 0.00 0.05 68 1008.2
20260905211404 88 163 1.0 5.0 0.00 0.00 0.03 67 1008.1
20260905210405 90 150 0.0 4.0 0.00 0.00 0.03 62 1008.2
20260905205407 90 152 0.0 5.0 0.00 0.00 0.03 63 1007.7
20260905204405 91 159 0.0 3.0 0.00 0.00 0.03 66 1007.6
20260905203405 91 159 0.0 1.0 0.00 0.00 0.03 65 1007.6
20260905202405 91 159 0.0 2.0 0.00 0.00 0.03 61 1007.8
20260905201405 93 159 0.0 1.0 0.00 0.00 0.03 58 1008.1
20260905200408 95 158 1.0 2.0 0.00 0.00 0.01 54 1008.2
20260905195405 95 158 0.0 0.0 0.00 0.00 0.00 48 1008.1
20260905194404 95 158 0.0 2.0 0.00 0.00 0.00 46 1008.2
20260905193404 96 158 0.0 5.0 0.00 0.00 0.00 46 1008.2
20260905192404 96 108 1.0 2.0 0.00 0.00 0.00 45 1008.3
20260905191405 97 107 0.0 2.0 0.00 0.00 0.00 44 1008.6
20260905190404 97 111 0.0 2.0 0.00 0.00 0.00 44 1008.6
20260905185404 96 109 0.0 4.0 0.00 0.00 0.00 47 1008.7
20260905184404 95 34 0.0 2.0 0.00 0.00 0.00 49 1008.8
20260905183404 94 34 0.0 2.0 0.00 0.00 0.00 53 1008.8
20260905182404 93 34 0.0 2.0 0.00 0.00 0.00 53 1009.2
20260905181404 92 34 2.0 3.0 0.00 0.00 0.00 55 1009.7
20260905180405 91 33 0.0 3.0 0.00 0.00 0.00 56 1009.7
20260905175405 91 32 1.0 2.0 0.00 0.00 0.00 57 1009.8
20260905174404 92 32 0.0 3.0 0.00 0.00 0.00 56 1010.0
20260905173408 92 56 0.0 3.0 0.00 0.00 0.00 57 1010.0
20260905172407 92 56 1.0 3.0 0.00 0.00 0.00 59 1010.1
20260905171404 91 56 0.0 1.0 0.00 0.00 0.00 61 1010.2
20260905170404 90 56 0.0 0.0 0.00 0.00 0.00 62 1010.2
20260905165404 90 56 0.0 5.0 0.00 0.00 0.00 64 1010.3
20260905164404 90 153 0.0 3.0 0.00 0.00 0.00 62 1010.3
20260905163405 90 153 0.0 2.0 0.00 0.00 0.00 64 1010.3
20260905162407 89 153 0.0 3.0 0.00 0.00 0.00 67 1010.3
20260905161405 88 153 0.0 3.0 0.00 0.00 0.00 68 1010.3
20260905160404 87 153 0.0 2.0 0.00 0.00 0.00 71 1010.3
20260905155407 86 153 0.0 3.0 0.00 0.00 0.00 74 1010.3
20260905154404 85 153 1.0 3.0 0.00 0.00 0.00 79 1010.3
20260905153407 84 153 0.0 1.0 0.00 0.00 0.00 82 1010.3
20260905152404 83 152 0.0 1.0 0.00 0.00 0.00 85 1010.4
20260905151404 82 153 0.0 0.0 0.00 0.00 0.00 86 1010.4
20260905150404 82 153 0.0 1.0 0.00 0.00 0.00 88 1010.4
20260905145404 82 153 0.0 0.0 0.00 0.00 0.00 89 1010.2
20260905144404 82 153 0.0 0.0 0.00 0.00 0.00 90 1010.2
20260905143504 81 153 0.0 1.0 0.00 0.00 0.00 90 1010.2
20260905142504 81 153 0.0 0.0 0.00 0.00 0.00 90 1010.3
20260905141504 81 153 0.0 1.0 0.00 0.00 0.00 90 1010.2
20260905140504 80 152 0.0 0.0 0.00 0.00 0.00 90 1010.2
20260905135504 80 153 0.0 0.0 0.00 0.00 0.00 90 1010.1